| time (UTC) | temp F | wind direction | speed MPH | gust MPH | rain 1hr in | rain 24hr in | rain mn in | humidity % | barometer mb |
| 20260906010106 | 64 | 218 | 0.0 | 1.0 | 0.00 | 0.01 | 0.01 | 74 | 1020.1 |
| 20260906001530 | 62 | 212 | 0.0 | 5.0 | 0.00 | 0.01 | 0.01 | 77 | 1020.5 |
| 20260905234604 | 66 | 218 | 0.0 | 4.0 | 0.00 | 0.01 | 0.01 | 69 | 1020.4 |
| 20260905233031 | 67 | 292 | 0.0 | 0.0 | 0.00 | 0.01 | 0.01 | 69 | 1020.2 |
| 20260905230104 | 66 | 292 | 0.0 | 0.0 | 0.00 | 0.01 | 0.01 | 67 | 1020.3 |
| 20260905224526 | 67 | 255 | 0.0 | 0.0 | 0.00 | 0.01 | 0.01 | 63 | 1020.2 |
| 20260905223030 | 68 | 225 | 0.0 | 1.0 | 0.00 | 0.01 | 0.01 | 61 | 1020.2 |
| 20260905221532 | 68 | 225 | 0.0 | 0.0 | 0.00 | 0.01 | 0.01 | 62 | 1020.2 |
| 20260905220116 | 69 | 225 | 0.0 | 0.0 | 0.00 | 0.01 | 0.01 | 60 | 1020.3 |
| 20260905214606 | 70 | 225 | 0.0 | 0.0 | 0.00 | 0.01 | 0.01 | 59 | 1020.3 |
| 20260905213029 | 69 | 225 | 0.0 | 1.0 | 0.00 | 0.01 | 0.01 | 59 | 1020.5 |
| 20260905211532 | 69 | 222 | 0.0 | 3.0 | 0.00 | 0.01 | 0.01 | 58 | 1020.5 |
| 20260905210103 | 69 | 257 | 0.0 | 2.0 | 0.00 | 0.01 | 0.01 | 59 | 1020.6 |
| 20260905204531 | 68 | 270 | 0.0 | 1.0 | 0.00 | 0.01 | 0.01 | 61 | 1020.7 |
| 20260905201527 | 68 | 306 | 0.0 | 4.0 | 0.00 | 0.01 | 0.01 | 61 | 1020.8 |
| 20260905200030 | 68 | 328 | 0.0 | 7.0 | 0.00 | 0.01 | 0.01 | 63 | 1020.8 |
| 20260905193030 | 68 | 317 | 0.0 | 3.0 | 0.00 | 0.03 | 0.01 | 64 | 1021.1 |
| 20260905191532 | 68 | 319 | 0.0 | 3.0 | 0.00 | 0.03 | 0.01 | 65 | 1021.3 |
| 20260905190029 | 67 | 347 | 0.0 | 4.0 | 0.00 | 0.03 | 0.01 | 67 | 1021.5 |
| 20260905184607 | 66 | 346 | 0.0 | 4.0 | 0.00 | 0.03 | 0.01 | 69 | 1021.8 |
| 20260905183102 | 65 | 331 | 0.0 | 5.0 | 0.00 | 0.03 | 0.01 | 74 | 1021.9 |
| 20260905180031 | 60 | 225 | 0.0 | 1.0 | 0.00 | 0.03 | 0.01 | 83 | 1022.2 |
| 20260905174530 | 59 | 225 | 0.0 | 1.0 | 0.00 | 0.03 | 0.01 | 85 | 1022.2 |
| 20260905173031 | 58 | 225 | 0.0 | 0.0 | 0.00 | 0.03 | 0.01 | 86 | 1022.2 |
| 20260905171529 | 57 | 225 | 0.0 | 0.0 | 0.00 | 0.03 | 0.01 | 86 | 1022.1 |
| 20260905170029 | 57 | 225 | 0.0 | 0.0 | 0.00 | 0.03 | 0.01 | 87 | 1022.2 |
| 20260905164530 | 57 | 225 | 0.0 | 0.0 | 0.00 | 0.03 | 0.01 | 88 | 1022.1 |
| 20260905163030 | 57 | 225 | 0.0 | 0.0 | 0.00 | 0.03 | 0.01 | 91 | 1022.1 |
| 20260905161644 | 56 | 225 | 0.0 | 0.0 | 0.00 | 0.03 | 0.01 | 94 | 1022.1 |
| 20260905160030 | 55 | 225 | 0.0 | 0.0 | 0.00 | 0.03 | 0.01 | 96 | 1022.1 |
| 20260905153032 | 53 | 225 | 0.0 | 0.0 | 0.00 | 0.03 | 0.01 | 97 | 1022.1 |
| 20260905151530 | 53 | 225 | 0.0 | 0.0 | 0.00 | 0.03 | 0.01 | 97 | 1022.1 |
| 20260905150027 | 52 | 225 | 0.0 | 0.0 | 0.00 | 0.03 | 0.01 | 97 | 1022.0 |
| 20260905144530 | 51 | 225 | 0.0 | 0.0 | 0.00 | 0.03 | 0.01 | 97 | 1021.9 |
| 20260905143146 | 51 | 225 | 0.0 | 1.0 | 0.00 | 0.03 | 0.01 | 97 | 1021.8 |
| 20260905141532 | 51 | 225 | 0.0 | 0.0 | 0.00 | 0.03 | 0.01 | 97 | 1021.8 |
| 20260905140030 | 50 | 225 | 0.0 | 0.0 | 0.00 | 0.03 | 0.01 | 97 | 1021.5 |
| 20260905134530 | 50 | 225 | 0.0 | 0.0 | 0.00 | 0.03 | 0.01 | 96 | 1021.4 |
| 20260905133103 | 50 | 225 | 0.0 | 1.0 | 0.00 | 0.03 | 0.01 | 96 | 1021.3 |
| 20260905131529 | 50 | 225 | 0.0 | 1.0 | 0.00 | 0.04 | 0.01 | 96 | 1021.2 |
| 20260905130031 | 51 | 225 | 0.0 | 0.0 | 0.00 | 0.04 | 0.01 | 96 | 1021.2 |
| 20260905124532 | 51 | 225 | 0.0 | 0.0 | 0.00 | 0.04 | 0.01 | 96 | 1021.2 |
| 20260905123031 | 51 | 225 | 0.0 | 0.0 | 0.00 | 0.04 | 0.01 | 96 | 1021.3 |
| 20260905121528 | 51 | 225 | 0.0 | 1.0 | 0.00 | 0.04 | 0.01 | 96 | 1021.3 |
| 20260905120104 | 51 | 225 | 0.0 | 0.0 | 0.00 | 0.04 | 0.01 | 96 | 1021.1 |
| 20260905114532 | 51 | 225 | 0.0 | 0.0 | 0.00 | 0.04 | 0.01 | 96 | 1021.2 |
| 20260905111531 | 51 | 225 | 0.0 | 1.0 | 0.00 | 0.04 | 0.01 | 96 | 1021.0 |
| 20260905110040 | 51 | 225 | 0.0 | 2.0 | 0.00 | 0.04 | 0.01 | 96 | 1020.9 |
| 20260905104530 | 51 | 225 | 0.0 | 0.0 | 0.00 | 0.04 | 0.01 | 95 | 1021.0 |
| 20260905103033 | 51 | 225 | 0.0 | 1.0 | 0.00 | 0.04 | 0.01 | 95 | 1020.9 |
| 20260905101531 | 51 | 225 | 0.0 | 0.0 | 0.00 | 0.04 | 0.01 | 95 | 1020.9 |
| 20260905100030 | 51 | 225 | 0.0 | 1.0 | 0.00 | 0.04 | 0.01 | 95 | 1021.0 |
| 20260905094529 | 51 | 225 | 0.0 | 0.0 | 0.00 | 0.04 | 0.01 | 95 | 1021.0 |
| 20260905093033 | 52 | 225 | 0.0 | 0.0 | 0.00 | 0.04 | 0.01 | 95 | 1021.0 |
| 20260905084530 | 52 | 225 | 0.0 | 0.0 | 0.00 | 0.04 | 0.01 | 94 | 1020.8 |
| 20260905083032 | 52 | 225 | 0.0 | 2.0 | 0.00 | 0.04 | 0.01 | 94 | 1020.8 |
| 20260905081530 | 52 | 225 | 0.0 | 1.0 | 0.00 | 0.04 | 0.01 | 94 | 1020.7 |
| 20260905080028 | 52 | 225 | 0.0 | 1.0 | 0.00 | 0.04 | 0.01 | 94 | 1020.6 |
| 20260905073032 | 53 | 225 | 0.0 | 1.0 | 0.01 | 0.04 | 0.01 | 93 | 1020.3 |
| 20260905071533 | 53 | 230 | 0.0 | 2.0 | 0.01 | 0.04 | 0.01 | 93 | 1020.2 |
| 20260905064530 | 53 | 247 | 0.0 | 0.0 | 0.00 | 0.03 | 0.03 | 92 | 1019.9 |
| 20260905063034 | 53 | 247 | 0.0 | 2.0 | 0.00 | 0.03 | 0.03 | 92 | 1019.8 |
| 20260905061531 | 53 | 247 | 0.0 | 1.0 | 0.00 | 0.03 | 0.03 | 91 | 1020.0 |
| 20260905060033 | 53 | 247 | 0.0 | 1.0 | 0.00 | 0.03 | 0.03 | 91 | 1020.1 |
| 20260905054603 | 53 | 247 | 0.0 | 1.0 | 0.00 | 0.03 | 0.03 | 90 | 1019.8 |
| 20260905053030 | 53 | 247 | 0.0 | 1.0 | 0.00 | 0.03 | 0.03 | 90 | 1019.8 |
| 20260905051532 | 53 | 247 | 0.0 | 1.0 | 0.00 | 0.03 | 0.03 | 90 | 1019.8 |
| 20260905050029 | 53 | 266 | 0.0 | 2.0 | 0.00 | 0.03 | 0.03 | 90 | 1019.8 |
| 20260905044532 | 53 | 270 | 0.0 | 1.0 | 0.00 | 0.03 | 0.03 | 89 | 1019.7 |
| 20260905043030 | 53 | 270 | 0.0 | 1.0 | 0.00 | 0.03 | 0.03 | 89 | 1019.6 |
| 20260905041530 | 53 | 270 | 0.0 | 1.0 | 0.00 | 0.03 | 0.03 | 89 | 1019.6 |
| 20260905034532 | 54 | 270 | 0.0 | 1.0 | 0.00 | 0.03 | 0.03 | 87 | 1019.4 |
| 20260905033104 | 54 | 270 | 0.0 | 0.0 | 0.00 | 0.03 | 0.03 | 86 | 1019.1 |
| 20260905031529 | 55 | 270 | 0.0 | 1.0 | 0.00 | 0.03 | 0.03 | 85 | 1019.0 |
| 20260905030105 | 55 | 270 | 0.0 | 1.0 | 0.00 | 0.03 | 0.03 | 83 | 1018.9 |
| 20260905024530 | 56 | 270 | 0.0 | 1.0 | 0.00 | 0.03 | 0.03 | 81 | 1018.9 |
| 20260905023042 | 57 | 270 | 0.0 | 1.0 | 0.00 | 0.03 | 0.03 | 77 | 1018.9 |
| 20260905021528 | 58 | 269 | 0.0 | 3.0 | 0.00 | 0.03 | 0.03 | 75 | 1018.8 |
| 20260905020032 | 59 | 251 | 0.0 | 3.0 | 0.00 | 0.03 | 0.03 | 75 | 1018.7 |
| 20260905014532 | 59 | 247 | 0.0 | 3.0 | 0.00 | 0.03 | 0.03 | 74 | 1018.6 |
| 20260905011534 | 61 | 251 | 0.0 | 2.0 | 0.00 | 0.03 | 0.03 | 73 | 1018.3 |